This is the latest recevied weather packets stored in our database for station/object IZ1UQG-2. If no packets are shown the sender has not sent any weather packets the latest 10 day(s).
| Time | Temp. | Humidity | Pressure | Rain* | Wind** | Luminosity | Snow |
|---|---|---|---|---|---|---|---|
| 1777631585 | 15.56° C | 39% | 1026.5 hPa | 0 mm | - | 517 W/m² | - |
| 1777631285 | 15.56° C | 39% | 1026.5 hPa | 0 mm | - | 492 W/m² | - |
| 1777630984 | 15.56° C | 39% | 1026.6 hPa | 0 mm | - | 508 W/m² | - |
| 1777630564 | 15.56° C | 40% | 1026.7 hPa | 0 mm | - | 483 W/m² | - |
| 1777629724 | 15.56° C | 40% | 1026.6 hPa | 0 mm | - | 439 W/m² | - |
| 1777629665 | 15.56° C | 40% | 1026.6 hPa | 0 mm | - | 438 W/m² | - |
| 1777628585 | 15° C | 42% | 1026.6 hPa | 0 mm | - | 346 W/m² | - |
| 1777627865 | 15° C | 40% | 1026.7 hPa | 0 mm | - | 366 W/m² | - |
| 1777627745 | 15° C | 41% | 1026.6 hPa | 0 mm | - | 369 W/m² | - |
| 1777627144 | 15° C | 42% | 1026.6 hPa | 0 mm | - | 359 W/m² | - |
| 1777625765 | 15° C | 43% | 1026.5 hPa | 0 mm | - | 311 W/m² | - |
| 1777625165 | 15° C | 45% | 1026.5 hPa | 0 mm | - | 290 W/m² | - |
| 1777624564 | 14.44° C | 43% | 1026.4 hPa | 0 mm | - | 276 W/m² | - |
| 1777623906 | 14.44° C | 47% | 1026.4 hPa | 0 mm | - | 260 W/m² | - |
| 1777623424 | 14.44° C | 50% | 1026.4 hPa | 0 mm | - | 246 W/m² | - |
| 1777622893 | 14.44° C | 53% | 1026.5 hPa | 0 mm | - | 213 W/m² | - |
| 1777622717 | 14.44° C | 56% | 1026.5 hPa | 0 mm | - | 200 W/m² | - |
| 1777622584 | 14.44° C | 57% | 1026.5 hPa | 0 mm | - | 195 W/m² | - |
| 1777622464 | 13.89° C | 57% | 1026.5 hPa | 0 mm | - | 190 W/m² | - |
| 1777622345 | 13.89° C | 57% | 1026.5 hPa | 0 mm | - | 181 W/m² | - |
| 1777621805 | 13.89° C | 58% | 1026.4 hPa | 0 mm | - | 167 W/m² | - |
| 1777621325 | 13.33° C | 60% | 1026.5 hPa | 0 mm | - | 163 W/m² | - |
| 1777621264 | 13.33° C | 60% | 1026.5 hPa | 0 mm | - | 163 W/m² | - |
| 1777621205 | 13.33° C | 60% | 1026.4 hPa | 0 mm | - | 162 W/m² | - |
| 1777620845 | 13.33° C | 61% | 1026.3 hPa | 0 mm | - | 151 W/m² | - |
* Rain latest hour (hover to see other rain measurements)
** Current wind speed in m/s (hover to see current wind gust speed)